ARIANE 6 R/B

Last updated on Fri Dec 19 2025 00:02:10 GMT+0000 (Coordinated Universal Time)

1 67162U 25302C 25352.14519806 -.00000007 00000+0 00000+0 0 9991 2 67162 54.2320 107.2600 0000497 134.2640 225.6990 1.73130383 64
UTC large
Height (km)
Speed (km/s)
/
Latitude / Longitude
Inclination (degrees)
Orbital Period (minutes)
Azimuth
Elevation
Range (km)
Doppler Factor

Next 0 passes for location: London (51.5072 / 0.1276)

Sorry there are no passes over London.